Home > Weather > Dillenburg > Past weeks

Flag for Germany Weather for the Past 2 Weeks in Dillenburg, Hesse, Germany

Now
32 °F

Ice fog.


Feels Like: 26 °F
Forecast: 29 / 36 °F
Wind: 6 mph from West

Location: Hessen

Current Time: Feb 14, 2016 at 8:28:19 PM

Latest Report: Feb 14, 2016 at 5:50 PM


Visibility: 3 mi

Pressure: 29.24 "Hg

Humidity: 100%

Dew point: 32 °F

Location of DillenburgLocation

Historic Weather in Dillenburg — Graph

°F

Dillenburg Temperature Yesterday

Maximum temperature yesterday: 30 °F (at 10:20 AM)
Minimum temperature yesterday: 25 °F (at 7:50 AM)
Average temperature yesterday: 29 °F

High & Low Weather Summary for the Past Weeks

 TemperatureHumidityPressure
High50 °F (Feb 6, 1:50 PM)100% (Jan 30, 5:20 PM)30.24 "Hg (Jan 30, 5:20 PM)
Low25 °F (Feb 13, 7:50 AM)76% (Feb 6, 2:50 PM)28.91 "Hg (Feb 9, 5:20 PM)
Average37 °F96%29.66 "Hg
* Reported Jan 30 5:20 PM — Feb 14 5:50 PM, Dillenburg, Weather by CustomWeather, © 2016

Note: Actual official high and low records may vary slightly from our data, if they occured in-between our weather recording intervals... More about our weather records

Advertising

Dillenburg Weather History for the Previous 24 Hours

 ConditionsComfort  
Time TempWeatherWind HumidityBarometerVisibility
5:50 PM
Sun, Feb 14
32 °FIce fog.6 mph100%29.24 "Hg3 mi
5:20 PM32 °FIce fog.6 mph100%29.24 "Hg3 mi
4:50 PM34 °FMostly cloudy.5 mph100%29.24 "Hg4 mi
4:20 PM34 °FMostly cloudy.6 mph100%29.21 "HgN/A
3:50 PM34 °FMostly cloudy.6 mph100%29.21 "Hg4 mi
3:20 PM34 °FFog.5 mph100%29.18 "Hg3 mi
2:50 PM34 °FFog.5 mph100%29.18 "Hg3 mi
2:20 PM34 °FLow clouds.6 mph100%29.15 "Hg4 mi
1:50 PM34 °FBroken clouds.7 mph100%29.15 "HgN/A
1:20 PM34 °FBroken clouds.8 mph100%29.15 "HgN/A
12:50 PM34 °FBroken clouds.3 mph100%29.12 "HgN/A
12:20 PM36 °FBroken clouds.12 mph100%29.12 "HgN/A
11:50 AM34 °FBroken clouds.9 mph100%29.12 "HgN/A
11:20 AM36 °FBroken clouds.14 mph100%29.09 "HgN/A
10:50 AM34 °FChilly.10 mph100%29.06 "Hg1 mi
10:20 AM34 °FDrizzle. Fog.9 mph100%29.06 "Hg1 mi
9:50 AM34 °FDrizzle. Fog.8 mph100%29.06 "Hg0 mi
9:20 AM34 °FDrizzle. Fog.9 mph100%29.06 "Hg1 mi
8:20 AM34 °FLight rain. Broken clouds.6 mph100%29.03 "HgN/A
7:50 AM34 °FLight rain. Broken clouds.6 mph100%29.03 "HgN/A
Weather by CustomWeather, © 2016

See weather overviewHow to use our weather pages